This is the latest recevied weather packets stored in our database for station/object N0NAI-13. If no packets are shown the sender has not sent any weather packets the latest 10 day(s).
| Time | Temp. | Humidity | Pressure | Rain* | Wind** | Luminosity | Snow |
|---|---|---|---|---|---|---|---|
| 1777649131 | 10° C | 47% | 1020.2 hPa | 0 mm | - | - | - |
| 1777648515 | 9.44° C | 50% | 1020.2 hPa | 0 mm | - | - | - |
| 1777647918 | 10° C | 51% | 1020.3 hPa | 0 mm | - | - | - |
| 1777647321 | 9.44° C | 50% | 1020.2 hPa | 0 mm | - | - | - |
| 1777646724 | 8.89° C | 52% | 1020.2 hPa | 0 mm | - | - | - |
| 1777646121 | 8.89° C | 53% | 1020.2 hPa | 0 mm | - | - | - |
| 1777645518 | 8.33° C | 55% | 1020.2 hPa | 0 mm | - | - | - |
| 1777644933 | 7.22° C | 56% | 1020.2 hPa | 0 mm | - | - | - |
| 1777644318 | 7.22° C | 59% | 1020.2 hPa | 0 mm | - | - | - |
| 1777643720 | 6.67° C | 58% | 1020.1 hPa | 0 mm | - | - | - |
| 1777643124 | 6.11° C | 60% | 1020 hPa | 0 mm | - | - | - |
| 1777642526 | 6.11° C | 61% | 1020 hPa | 0 mm | - | - | - |
| 1777641930 | 5.56° C | 63% | 1020 hPa | 0 mm | - | - | - |
| 1777641332 | 5.56° C | 64% | 1019.9 hPa | 0 mm | - | - | - |
| 1777639523 | 3.89° C | 78% | 1019.7 hPa | 0 mm | - | - | - |
| 1777638926 | 3.89° C | 81% | 1019.7 hPa | 0 mm | - | - | - |
| 1777638323 | 2.78° C | 89% | 1019.7 hPa | 0 mm | - | - | - |
| 1777637726 | 2.22° C | 99% | 1019.5 hPa | 0 mm | - | - | - |
| 1777635318 | 0.56° C | 99% | 1019.1 hPa | 0 mm | - | - | - |
| 1777634721 | 0.56° C | 99% | 1019.1 hPa | 0 mm | - | - | - |
| 1777634118 | 0° C | 99% | 1019 hPa | 0 mm | - | - | - |
| 1777633527 | 0° C | 99% | 1018.6 hPa | 0 mm | - | - | - |
| 1777632929 | 0° C | 99% | 1018.8 hPa | 0 mm | - | - | - |
| 1777631717 | 0.56° C | 99% | 1018.7 hPa | 0 mm | - | - | - |
| 1777631120 | 0.56° C | 99% | 1018.6 hPa | 0 mm | - | - | - |
* Rain latest hour (hover to see other rain measurements)
** Current wind speed in m/s (hover to see current wind gust speed)